Regional Weather Roundup
Issued by NWS

Home | Current Version | Previous Version | Graphics & Text | Print | Product List | Glossary On
Versions: 1 2 3 4 5 6 7 8 9 10 11 12 13 14 15 16 17 18 19 20 21 22 23 24 25 26 27 28 29 30 31 32 33 34 35 36 37 38 39 40 41 42 43 44 45 46 47 48 49 50
000
ASUS43 KDMX 032008
RWRIA

WEATHER ROUNDUP FOR IOWA
NATIONAL WEATHER SERVICE DES MOINES IA
300 PM CDT TUE MAY 03 2016

NOTE: "FAIR" INDICATES FEW OR NO CLOUDS BELOW 12,000 FEET WITH NO
SIGNIFICANT WEATHER AND/OR OBSTRUCTIONS TO VISIBILITY.

* - THESE STATIONS ARE NOT NWS STATIONS...THUS NOT UNDER NWS
QUALITY CONTROL.  THEY ALSO DO NOT REPORT WEATHER SUCH
AS PRECIPITATION OR FOG.

IAZ001>003-012>014-020>022-031>034-043>046-032100-
   NORTHWEST IOWA

CITY           SKY/WX    TMP DP  RH WIND       PRES   REMARKS
CARROLL *      MOSUNNY   64  45  48 W17G24    29.93F
CHEROKEE *     MOSUNNY   66  45  45 W16G24    29.92F
DENISON *      MOSUNNY   66  43  42 W16       29.93F
LE MARS *      MOSUNNY   66  45  45 NW18G24   29.95F
ORANGE CITY *  PTSUNNY   66  46  48 NW22G29   29.92F
SHELDON *      PTSUNNY   66  45  45 W24G32    29.90F
SIOUX CITY     PTSUNNY   68  46  45 NW17G23   29.95F
SPENCER        PTSUNNY   67  44  43 W20G33    29.90F
STORM LAKE *   MOSUNNY   66  45  45 W22G29    29.93F
$$

IAZ055>058-069>071-079>083-090>094-032100-
   SOUTHWEST IOWA

CITY           SKY/WX    TMP DP  RH WIND       PRES   REMARKS
ATLANTIC *     MOSUNNY   66  43  42 SW15      29.97F
AUDUBON *      MOSUNNY   68  45  42 W9G18     29.97F
CLARINDA *       N/A    N/A N/A N/A MISG        N/A
COUNCIL BLFS * MOSUNNY   68  43  40 W12G20    29.98F
CRESTON *      PTSUNNY   64  43  45 W17       29.99F
HARLAN  *      PTSUNNY   66  45  45 W17       30.00F
LAMONI         PTSUNNY   63  44  50 W16G22    29.98F
RED OAK *      PTSUNNY   68  41  37 SW8G18    29.99F
SHENANDOAH *   PTSUNNY   68  45  42 W12       30.00F
$$

IAZ047>049-059>061-072>074-084-032100-
   CENTRAL IOWA

CITY           SKY/WX    TMP DP  RH WIND       PRES   REMARKS
AMES           PTSUNNY   68  43  40 W15G23    29.92F
ANKENY *       MOSUNNY   66  43  42 W16       29.93F
BOONE *        PTSUNNY   66  43  42 W16G26    29.91F
CHARITON *     MOSUNNY   68  41  37 W16       29.96F
DES MOINES     PTSUNNY   68  37  32 W17G25    29.94F
GRINNELL*      MOSUNNY   66  41  39 W16       29.92F
KNOXVILLE *    MOSUNNY   66  37  34 W14G21    29.93F
MARSHALLTOWN   MOSUNNY   66  40  38 W15G26    29.90F
NEWTON *       MOSUNNY   68  39  34 W16G22    29.92F
PERRY *        PTSUNNY   66  45  45 W17G28    29.94F
$$

IAZ004>006-015-016-023>025-035-036-032100-
   NORTH CENTRAL IOWA

CITY           SKY/WX    TMP DP  RH WIND       PRES   REMARKS
ALGONA *       MOSUNNY   68  45  42 W22G29    29.89F
CLARION *      PTSUNNY   68  43  40 W22G30    29.89F
ESTHERVILLE    CLOUDY    65  47  52 W24G31    29.88F
FORT DODGE *   PTSUNNY   66  45  45 W14G26    29.91F
MASON CITY     MOSUNNY   67  40  37 W18G26    29.87F
FOREST CITY *  MOSUNNY   66  37  34 W21G29    29.86F
WEBSTER CITY * MOSUNNY   68  43  40 W22       29.88F
IOWA FALLS *     N/A     68  41  37 W18G25    29.90F
$$

IAZ007>011-017>019-026>030-037>042-050>054-066-032100-
   NORTHEAST IOWA

CITY           SKY/WX    TMP DP  RH WIND       PRES   REMARKS
CEDAR RAPIDS   PTSUNNY   64  42  44 W20G26    29.89F
CHARLES CITY * PTSUNNY   68  37  32 W17       29.86F
CLINTON *      PTSUNNY   66  42  41 W22       29.88F
DECORAH *      PTSUNNY   66  36  32 W8G21     29.82F
DUBUQUE        PTSUNNY   64  40  41 W15G23    29.86F
MONTICELLO *   MOSUNNY   66  41  39 W15G21    29.87F
OELWEIN *      PTSUNNY   66  39  37 W21       29.87F
WATERLOO       MOSUNNY   66  37  34 W17G28    29.87F
$$

IAZ064-065-067-068-078-032100-
   EAST CENTRAL IOWA

CITY           SKY/WX    TMP DP  RH WIND       PRES   REMARKS
DAVENPORT      CLOUDY    65  39  38 W21       29.90F
IOWA CITY      PTSUNNY   67  42  40 W17       29.92F
MT. PLEASANT * MOSUNNY   68  43  40 W15       29.94F
MUSCATINE *    PTSUNNY   68  39  34 W14G21    29.92F
QUAD CITIES    PTSUNNY   70  38  31 W15G23    29.89F
$$

IAZ062-063-075>077-085>089-095>099-032100-
   SOUTHEAST IOWA

CITY           SKY/WX    TMP DP  RH WIND       PRES   REMARKS
BURLINGTON     MOSUNNY   66  41  40 W12       29.93F
FAIRFIELD *    MOSUNNY   64  41  42 W9G17     29.94F
FORT MADISON * PTSUNNY   66  37  34 W9        29.95F
KEOKUK *       PTSUNNY   68  37  32 W15       29.95F
OSKALOOSA *      N/A     68  39  34 W14       29.94F
OTTUMWA        PTSUNNY   68  42  38 W14       29.94F
WASHINGTON *   PTSUNNY   66  43  42 W13G22    29.94F
$$

ABBREVIATIONS USED IN REMARKS
   TC - TEMPERATURES IN CELSIUS
  WCI - WIND CHILL INDEX
   HX - HEAT INDEX
  VSB - VISIBILITY
$$





USA.gov is the U.S. government's official web portal to all federal, state and local government web resources and services.